Barter Island, AK

7:55 PM AKDT on May 24, 2018 (GMT -0800)
Barter Island LRRS

Weather History for PABA - February, 2014

Change the Weather History Date:

Monday, February 17, 2014

  Actual Average Record
Temperature  
Mean Temperature -24 °F -  
Max Temperature -18 °F -6 °F 24 °F (2006)
Min Temperature -29 °F -18 °F -41 °F (1998)
Degree Days  
Heating Degree Days 88    
Moisture  
Dew Point -28 °F    
Average Humidity 74    
Maximum Humidity 78    
Minimum Humidity 69    
Precipitation  
Precipitation 0.00 in - - ()
Sea Level Pressure  
Sea Level Pressure 29.97 in    
Wind  
Wind Speed 15 mph (ENE)    
Max Wind Speed 21 mph    
Max Gust Speed -    
Visibility 10 miles    
Events      
Averages and records for this station are not official NWS values.
T = Trace of Precipitation, MM = Missing Value Source: NWS Daily Summary

Daily Weather History Graph

Daily Weather History Graph

Search for Another Location

Airport or City:

Astronomy

Feb. 17, 2014 Rise Set
Actual Time 8:57 AM AKST 4:40 PM AKST
Civil Twilight 7:49 AM AKST 5:48 PM AKST
Nautical Twilight 6:38 AM AKST 7:00 PM AKST
Astronomical Twilight 5:27 AM AKST 8:12 PM AKST
Moon 9:53 PM AKST (2/17) 8:11 AM AKST (2/17)
Length of Visible Light 9h 58m
Length of Day
7h 42m
Waning Gibbous, 92% of the Moon is Illuminated
Feb 17
Waning Gibbous
Feb 22
Last Quarter
Feb 28
New
Mar 8
First Quarter
Mar 16
Full

Hourly Weather History & Observations

Time (AKST) Temp. Windchill Dew Point Humidity Pressure Visibility Wind Dir Wind Speed Gust Speed Precip Events Conditions
12:01 AM -18.0 °F -46.0 °F -24.0 °F 74% 29.84 in 5.0 mi East 20.7 mph - N/A   Haze
1:01 AM -18.0 °F -46.0 °F -24.0 °F 74% 29.86 in 5.0 mi East 20.7 mph - N/A   Haze
2:01 AM -18.9 °F -45.2 °F -24.0 °F 78% 29.87 in 8.0 mi East 17.3 mph - N/A   Clear
3:01 AM -18.9 °F -43.6 °F -25.1 °F 74% 29.88 in 10.0 mi East 15.0 mph - N/A   Clear
4:01 AM -18.9 °F -43.6 °F -25.1 °F 74% 29.89 in 10.0 mi East 15.0 mph - N/A   Clear
5:01 AM -18.9 °F -44.4 °F -25.1 °F 74% 29.90 in 10.0 mi East 16.1 mph - N/A   Clear
6:01 AM -20.0 °F -44.1 °F -25.1 °F 78% 29.91 in 10.0 mi East 13.8 mph - N/A   Clear
7:01 AM -20.0 °F -45.0 °F -26.0 °F 74% 29.93 in 10.0 mi ENE 15.0 mph - N/A   Clear
8:01 AM -20.9 °F -46.2 °F -26.0 °F 77% 29.93 in 10.0 mi ENE 15.0 mph - N/A   Clear
9:01 AM -22.0 °F -46.6 °F -27.0 °F 77% 29.95 in 10.0 mi ENE 13.8 mph - N/A   Clear
10:01 AM -20.9 °F -43.3 °F -27.0 °F 73% 29.96 in 10.0 mi ENE 11.5 mph - N/A   Clear
11:01 AM -20.9 °F -45.3 °F -27.0 °F 73% 29.98 in 10.0 mi ENE 13.8 mph - N/A   Clear
12:01 PM -22.0 °F -47.5 °F -27.9 °F 74% 29.98 in 10.0 mi ENE 15.0 mph - N/A   Clear
1:01 PM -22.0 °F -46.6 °F -27.9 °F 74% 29.99 in 10.0 mi ENE 13.8 mph - N/A   Clear
2:01 PM -23.1 °F -47.1 °F -29.0 °F 74% 30.01 in 10.0 mi ENE 12.7 mph - N/A   Clear
3:01 PM -23.1 °F -47.1 °F -29.0 °F 74% 30.01 in 10.0 mi ENE 12.7 mph - N/A   Clear
4:01 PM -24.0 °F -44.8 °F -29.9 °F 74% 30.02 in 10.0 mi East 9.2 mph - N/A   Clear
5:01 PM -25.1 °F -46.1 °F -31.0 °F 74% 30.03 in 10.0 mi East 9.2 mph - N/A   Clear
6:01 PM -26.0 °F -47.2 °F -32.1 °F 73% 30.04 in 10.0 mi ENE 9.2 mph - N/A   Clear
7:01 PM -26.0 °F -44.2 °F -32.1 °F 73% 30.04 in 10.0 mi ENE 6.9 mph - N/A   Clear
8:01 PM -27.0 °F -45.5 °F -33.0 °F 73% 30.05 in 10.0 mi NE 6.9 mph - N/A   Clear
9:01 PM -27.9 °F -49.6 °F -35.0 °F 69% 30.07 in 10.0 mi NNE 9.2 mph - N/A   Clear
10:01 PM -29.0 °F -43.8 °F -35.0 °F 73% 30.08 in 10.0 mi NE 4.6 mph - N/A   Clear
11:01 PM -29.9 °F -44.8 °F - N/A% 30.10 in 10.0 mi NE 4.6 mph - N/A   Clear